Location: ????????
(55.0808°N, 38.5463°E)
Time: 15:13:39
(UTC+00:00)

Cosmos 2026 Rocket - Pass Details

Date: 14 April 2024
Orbit: 938 x 1000 km, 82.9° (Epoch: 18 May)

Event Time Altitude Azimuth Distance (km) Brightness Sun altitude
Exits shadow 00:49:25 - 189° (S) 3,046 6.2 -12.8°
Reaches altitude 10° 00:50:15 10° 189° (S) 2,737 5.9 -12.7°
Maximum altitude 00:56:33 89° 280° (W) 1,003 4.1 -12.0°
Drops below altitude 10° 01:02:59 10° 11° (NNE) 2,783 7.1 -11.2°
Sets 01:05:32 0° 12° (NNE) 3,739 7.8 -10.9°
